TimeEST,TemperatureF,Dew PointF,Humidity,Sea Level PressureIn,VisibilityMPH,Wind Direction,Wind SpeedMPH,Gust SpeedMPH,PrecipitationIn,Events,Conditions,WindDirDegrees,DateUTC
12:53 AM,37.0,30.9,79,30.19,10.0,West,6.9,-,N/A,,Clear,280,2013-03-04 05:53:00
1:53 AM,39.0,33.1,79,30.17,10.0,WSW,3.5,-,N/A,,Clear,240,2013-03-04 06:53:00
2:53 AM,36.0,30.9,82,30.16,10.0,West,3.5,-,N/A,,Clear,260,2013-03-04 07:53:00
3:53 AM,34.0,30.0,85,30.15,10.0,West,4.6,-,N/A,,Clear,270,2013-03-04 08:53:00
4:53 AM,34.0,30.9,89,30.16,10.0,NW,4.6,-,N/A,,Clear,310,2013-03-04 09:53:00
5:53 AM,35.1,32.0,89,30.18,10.0,West,4.6,-,N/A,,Clear,260,2013-03-04 10:53:00
6:53 AM,35.1,32.0,89,30.20,10.0,West,3.5,-,N/A,,Clear,260,2013-03-04 11:53:00
7:53 AM,39.9,36.0,86,30.22,10.0,WNW,5.8,-,N/A,,Clear,300,2013-03-04 12:53:00
8:53 AM,46.9,27.0,46,30.24,10.0,NW,13.8,-,N/A,,Clear,320,2013-03-04 13:53:00
9:53 AM,52.0,25.0,35,30.25,10.0,NW,12.7,-,N/A,,Clear,320,2013-03-04 14:53:00
10:53 AM,55.0,23.0,29,30.23,10.0,North,11.5,-,N/A,,Clear,350,2013-03-04 15:53:00
11:53 AM,57.0,25.0,29,30.21,10.0,NNE,12.7,-,N/A,,Clear,20,2013-03-04 16:53:00
12:53 PM,59.0,23.0,25,30.18,10.0,NNE,12.7,-,N/A,,Clear,30,2013-03-04 17:53:00
1:53 PM,61.0,21.0,21,30.16,10.0,NNE,15.0,-,N/A,,Clear,30,2013-03-04 18:53:00
2:53 PM,62.1,23.0,22,30.15,10.0,NNE,11.5,-,N/A,,Clear,30,2013-03-04 19:53:00
3:53 PM,62.1,32.0,32,30.15,10.0,ENE,9.2,-,N/A,,Clear,60,2013-03-04 20:53:00
4:53 PM,60.1,37.9,44,30.16,10.0,NE,8.1,-,N/A,,Clear,40,2013-03-04 21:53:00
5:53 PM,57.9,39.0,49,30.17,10.0,ENE,5.8,-,N/A,,Clear,60,2013-03-04 22:53:00
6:53 PM,55.9,39.0,53,30.18,10.0,ENE,8.1,-,N/A,,Clear,60,2013-03-04 23:53:00
7:53 PM,55.0,41.0,59,30.19,10.0,ENE,6.9,-,N/A,,Clear,70,2013-03-05 00:53:00
8:53 PM,54.0,42.1,64,30.19,10.0,ENE,5.8,-,N/A,,Clear,60,2013-03-05 01:53:00
9:53 PM,52.0,41.0,66,30.19,10.0,Calm,Calm,-,N/A,,Clear,0,2013-03-05 02:53:00
10:53 PM,46.0,39.0,76,30.19,10.0,Calm,Calm,-,N/A,,Clear,0,2013-03-05 03:53:00
11:53 PM,46.0,41.0,83,30.17,10.0,Calm,Calm,-,N/A,,Clear,0,2013-03-05 04:53:00